Location: Montichiari
(45.4167°N, 10.3833°E)
Time: 07:04:28
(UTC+00:00)

Daily predictions for brighter satellites

Satellite Brightness Start Highest point End
(mag) Time Altitude Azimuth Time Altitude Azimuth Time Altitude Azimuth
Nadezhda 3 Rocket 4.2 18:33:41 10° N 18:39:54 57° ENE 18:46:07 10° SSE
NOSS 2-1 (E) 3.5 18:39:48 10° SSW 18:43:15 43° ESE 18:47:08 10° NE
Cosmos 1666 Rocket 3.7 18:40:39 10° N 18:45:06 58° ENE 18:49:29 10° SSE
Cosmos 1825 3.9 18:46:55 10° NNE 18:49:29 17° ENE 18:52:03 10° ESE
Resurs 1-3 3.7 18:47:26 10° SSE 18:51:45 59° ENE 18:56:05 10° N
Spot 2 Rocket 3.8 18:47:16 10° SE 18:52:09 48° ENE 18:57:03 10° N
SJ-6B 3.7 18:51:08 10° S 18:55:05 54° W 18:59:00 10° NNW
Meteor 2-15 Rocket 4.5 18:49:10 10° N 18:55:20 73° E 19:01:27 10° SSE
NOSS 3-3 (A) 4.2 18:50:14 10° S 18:55:58 48° ESE 19:02:15 10° NE
NOSS 3-3 (C) 4.2 18:50:21 10° S 18:56:04 47° ESE 19:02:20 10° NE
Cosmos 2360 Rocket 3.2 18:51:00 10° SW 18:56:30 53° WNW 19:02:01 10° NNE
Cosmos 1939 Rocket 2.7 18:53:04 10° SSE 18:56:56 73° ENE 19:00:51 10° N
Sich 1 3.0 18:54:05 10° N 18:58:23 87° ENE 19:02:39 10° S
Lacrosse 5 4.0 18:54:28 10° NW 18:58:25 22° N 19:02:22 10° NE
Cosmos 220 Rocket 4.3 18:54:43 10° N 18:58:58 48° ENE 19:03:04 10° SE
OE (NEXTSAT) 4.5 18:58:27 10° WSW 19:01:58 57° SSE 19:05:28 10° E
Meteor 1-27 4.5 18:57:06 10° SSE 19:02:37 50° E 19:08:05 10° NNE
Cosmos 1151 Rocket 3.9 18:59:04 10° SSE 19:02:41 28° E 19:06:20 10° NNE
Meteor 2-2 Rocket 4.3 18:59:11 10° S 19:04:59 73° E 19:10:57 10° NNE
Cosmos 2333 Rocket 2.4 18:59:36 10° S 19:05:01 49° ESE 19:10:27 10° NE
COSMOS 2428 2.7 19:04:28 10° SSW 19:10:12 88° ESE 19:15:58 10° NNE
Cosmos 1844 Rocket 3.2 19:07:02 10° NNW 19:12:39 60° WSW 19:18:11 10° S
Cosmos 2333 4.3 19:07:13 10° SSW 19:12:52 86° WNW 19:18:32 10° NNE
Cosmos 1844 3.9 19:09:39 10° NNW 19:15:21 73° WSW 19:21:03 10° SSE
USA 186 2.5 19:13:37 10° SSW 19:15:41 34° W 19:17:50 10° NNW
Cosmos 2154 Rocket 4.1 19:11:48 10° S 19:18:04 83° W 19:24:21 10° N
Cosmos 1633 Rocket 3.2 19:14:01 10° NNW 19:18:23 78° W 19:22:42 10° S
Cosmos 2219 Rocket 2.1 19:19:05 10° SSW 19:24:44 81° ESE 19:30:25 10° NNE
Cosmos 2237 Rocket 2.5 19:19:42 10° S 19:24:54 41° ESE 19:30:10 10° NE
H-2A R/B 2.8 19:25:20 18° ESE 19:28:21 33° ENE 19:32:47 10° N
Cosmos 2228 Rocket 3.1 19:24:44 10° S 19:29:01 56° E 19:33:20 10° NNE
Cosmos 1515 Rocket 3.6 19:26:15 10° S 19:30:38 59° E 19:35:03 10° NNE
CZ-3B R/B 1.4 19:29:41 10° NW 19:31:13 62° NE 19:31:20 59° ENE
Cosmos 2278 Rocket 2.2 19:26:14 10° NNW 19:31:56 71° ENE 19:36:06 19° SE
CZ-4B DEB 4.5 19:30:23 20° SSE 19:32:41 66° ENE 19:36:10 10° N
ERS-1 Rocket 3.8 19:30:15 20° ESE 19:33:01 34° ENE 19:37:31 10° N
Helios 1A 4.5 19:32:40 18° E 19:34:08 22° ENE 19:37:23 10° NNE
SL-8 R/B 4.2 19:33:01 10° SSW 19:37:24 37° SE 19:40:34 17° E
Cosmos 1455 2.6 19:35:15 10° SSW 19:39:03 65° W 19:42:54 10° N
ATLAS 5 CENTAUR R/B 4.4 19:35:52 10° NNW 19:39:10 16° NNE 19:42:41 10° ENE
NOAA 11 4.3 19:33:42 10° S 19:39:12 80° WSW 19:44:45 10° NNW
Cosmos 2341 Rocket 4.1 19:33:07 10° S 19:39:29 83° W 19:45:51 10° N
USA 245 4.5 19:41:00 15° NE 19:41:00 15° NE 19:41:58 10° NNE
USA 234 4.5 19:34:53 10° ENE 19:40:42 35° NNE 19:46:30 10° NW
Cosmos 1408 2.5 19:38:13 10° N 19:41:54 76° E 19:44:00 24° SSE
Cosmos 1892 4.4 19:39:45 10° NNW 19:43:17 33° W 19:46:45 10° SSW
Cosmos 2218 Rocket 4.0 19:40:01 10° S 19:46:15 63° E 19:52:35 10° NNE
Cosmos 1862 4.3 19:46:59 10° NNE 19:50:33 29° ENE 19:51:13 28° E
Cosmos 1328 Rocket 4.2 19:46:38 10° SSW 19:50:59 58° W 19:55:23 10° N
Resurs 01 Rocket 3.1 19:47:37 10° SSW 19:51:40 34° W 19:55:46 10° NNW
SL-08 RB Rocket 3.9 19:52:17 30° SE 19:54:12 53° ENE 19:58:34 10° N
NOSS 0 Rocket 3.9 19:50:47 10° SSW 19:56:57 86° ESE 20:03:12 10° NNE
Cosmos 2056 Rocket 3.9 19:55:03 20° SSE 19:58:24 45° ESE 20:03:32 10° NNE
Genesis I 4.0 19:54:44 10° NW 19:58:40 46° WSW 20:00:36 26° S
Cosmos 2366 rocket 3.9 19:53:21 10° S 19:59:31 72° E 20:05:47 10° NNE
Cosmos 2098 Rocket 3.0 19:57:15 22° S 20:00:10 63° E 20:03:59 10° NNE
Cosmos 1470 Rocket 4.3 19:55:56 10° NNW 20:00:13 53° W 20:03:54 14° SSW
Cosmos 405 Rocket 3.8 20:07:33 29° ENE 20:07:33 29° ENE 20:10:21 10° NNE
ATLAS 2AS CENTAUR R/B 3.4 20:00:05 10° NW 20:07:44 54° WSW 20:12:52 20° S
ATLAS CENTAUR R/B 1.7 20:05:23 10° SW 20:09:00 58° NW 20:12:51 10° NNE
SL-8 Rocket 4.2 20:03:06 10° SSW 20:09:24 75° W 20:15:42 10° N
SL-16 R/B 2.5 20:12:37 35° SE 20:14:07 42° ESE 20:19:26 10° NE
Cosmos 1339 Rocket 4.4 20:08:46 10° N 20:14:53 90° W 20:18:33 26° S
Cosmos 1624 Rocket 3.9 20:12:09 21° S 20:15:36 65° ESE 20:20:46 10° NNE
Cosmos 1190 Rocket 3.9 20:12:27 10° NNW 20:17:46 77° ENE 20:19:37 41° SE
GEOS 3 Rocket 3.6 20:15:39 10° NE 20:20:56 57° ESE 20:26:07 10° SSW
ARGOS 3.4 20:21:08 26° S 20:24:10 65° WSW 20:29:31 10° NNW
Cosmos 1943 Rocket 4.2 20:21:43 10° N 20:25:00 16° NE 20:27:17 13° ENE
Cosmos 1825 3.6 20:21:42 10° NNW 20:25:11 35° W 20:26:59 22° SW
Cosmos 1140 Rocket 3.9 20:20:36 10° N 20:25:36 47° ENE 20:26:40 41° E
MetOp-B 4.4 20:26:46 30° S 20:29:27 66° WSW 20:34:47 10° NNW
Terra 2.6 20:29:35 34° ENE 20:29:58 34° ENE 20:34:15 10° N
CZ-2C R/B 4.3 20:30:12 23° ENE 20:30:29 23° ENE 20:34:11 10° NNE
Cosmos 1954 Rocket 4.2 20:26:09 10° NNW 20:31:16 53° ENE 20:32:15 46° ESE
Cosmos 2344 3.9 20:29:24 32° SSE 20:32:05 43° ESE 20:39:41 10° NE
Cosmos 405 3.2 20:28:44 10° NNW 20:32:13 64° W 20:32:17 63° WSW
Cosmos 1933 4.3 20:34:02 35° NE 20:34:02 35° NE 20:36:54 10° NNE
NOSS 3-4 (A) 3.8 20:31:15 10° NW 20:38:17 89° WSW 20:41:12 41° SE
NOSS 3-4 (C) 3.8 20:31:21 10° NW 20:38:23 90° WSW 20:41:18 41° SE
Lacrosse 5 3.4 20:38:20 10° NW 20:42:45 29° NNE 20:45:14 20° ENE
Cosmos 2297 3.6 20:37:09 10° NNW 20:42:51 83° WSW 20:44:20 51° SSE
SPOT 5 2.6 20:42:24 68° SSE 20:42:59 88° ENE 20:47:29 10° NNW
Cosmos 1707 Rocket 3.4 20:45:11 74° ENE 20:45:11 74° ENE 20:49:19 10° NNE
DMSP B5D2-2 3.9 20:41:43 10° NNE 20:46:59 77° ESE 20:48:05 56° S
Meteor 2-10 Rocket 4.2 20:42:57 17° SSW 20:47:19 62° WNW 20:53:06 10° N
USA 267 3.2 20:41:55 10° NE 20:48:23 60° SE 20:54:49 10° SW
Cosmos 2333 Rocket 4.1 20:44:35 10° WSW 20:49:31 30° NW 20:54:29 10° N
Cosmos 1869 Rocket 3.9 20:46:49 10° NNW 20:51:08 58° W 20:51:41 53° SW
SL-19 R/B 4.2 20:50:19 56° SSE 20:51:34 87° ENE 20:57:11 10° NNW
Cosmos 2369 Rocket 3.4 20:46:59 10° N 20:51:59 30° NE 20:53:06 28° ENE
Helios 1B rocket 2.7 20:50:50 10° NNE 20:54:20 62° NNE 20:54:20 62° NNE
Cosmos 1934 Rocket 4.1 20:56:49 50° ESE 20:57:08 50° E 21:02:58 10° NNE
BREEZE-M DEB (TANK) 3.4 20:54:38 10° WNW 20:57:54 35° NNW 20:57:54 35° NNW
SPOT 1/Viking Rocket 3.6 20:58:17 58° SSW 20:59:13 73° WSW 21:04:28 10° NNW
Meteor 1-26 Rocket 4.4 21:01:40 50° E 21:01:40 50° E 21:06:39 10° NNE
CARTOSAT-1 3.8 21:03:12 65° NNE 21:03:12 65° NNE 21:07:01 10° N
Cosmos 1420 Rocket 4.4 21:04:28 48° ENE 21:04:28 48° ENE 21:08:44 10° NNE
Cosmos 1733 Rocket 3.7 20:59:29 10° N 21:03:02 48° NE 21:03:02 48° NE
H-2A R/B 3.3 21:05:58 26° SW 21:07:46 33° W 21:12:15 10° NNW
Cosmos 2237 Rocket 3.8 21:03:59 10° WSW 21:09:03 34° NW 21:14:10 10° NNE
Helios 1A 4.1 21:09:18 37° WSW 21:09:29 37° W 21:13:25 10° NNW
Cosmos 407 Rocket 4.4 21:04:48 10° NW 21:09:33 39° WSW 21:10:28 36° SW
ERS-1 Rocket 4.3 21:10:15 27° SW 21:11:46 32° W 21:16:17 10° NNW
CZ-2C R/B 3.8 21:08:42 10° NNE 21:12:04 29° ENE 21:12:04 29° ENE
Cosmos 614 Rocket 4.0 21:09:58 10° NNW 21:15:10 67° WSW 21:15:22 66° WSW
Cosmos 2278 Rocket 4.3 21:11:35 10° WNW 21:15:23 19° W 21:17:58 14° SW
Nimbus 7 Rocket 4.3 21:11:15 10° NNE 21:17:09 67° ESE 21:17:09 67° ESE
SL-8 R/B 4.2 21:14:56 10° WSW 21:18:38 53° W 21:18:38 53° W
Cosmos 1821 Rocket 4.0 21:19:13 54° SSW 21:20:47 80° W 21:27:08 10° N
USA 234 3.4 21:21:08 46° E 21:23:04 66° NNE 21:29:33 10° NW
RESURS DK-1 4.1 21:21:24 10° N 21:24:06 26° NNE 21:24:06 26° NNE
ATLAS 5 CENTAUR R/B 3.1 21:19:49 10° NNW 21:25:19 42° NE 21:26:31 38° ENE
Meteor 1-20 Rocket 4.2 21:21:05 10° N 21:26:16 67° NE 21:26:16 67° NE
Cosmos 2123 Rocket 3.8 21:29:01 10° N 21:35:22 85° W 21:35:52 77° SSW
Cosmos 1437 Rocket 4.4 21:33:32 10° NNW 21:35:51 33° NW 21:35:51 33° NW
BREEZE M DEB (TANK) 3.8 21:28:53 10° W 21:40:51 60° N 21:42:11 44° NE
Cosmos 1452 Rocket 3.8 21:41:13 62° WNW 21:41:22 62° WNW 21:46:36 10° NNE
CZ-4C R/B 2.7 21:58:00 53° NE 21:58:00 53° NE 22:02:38 10° NE
SL-16 R/B 3.7 21:54:21 15° WSW 21:58:20 34° NW 22:03:27 10° NNE
H-2A R/B 3.9 22:00:23 26° NE 22:00:23 26° NE 22:02:59 10° N
Meteor 1-11 Rocket 4.5 21:56:21 10° N 22:00:58 42° NE 22:00:58 42° NE
ALOS 2 4.4 22:07:59 26° NNE 22:07:59 26° NNE 22:10:21 10° N
Terra 3.4 22:08:28 28° WNW 22:08:28 28° WNW 22:11:53 10° NW
Cosmos 1943 Rocket 2.5 22:04:11 10° NNW 22:08:48 61° N 22:08:48 61° N
CZ-2C R/B 4.0 22:11:15 37° WNW 22:11:15 37° WNW 22:14:41 10° NNW
Cosmos 1605 Rocket 4.1 22:10:47 67° W 22:11:00 68° W 22:17:23 10° N
SeaSat 1 3.6 22:13:07 38° NNE 22:13:07 38° NNE 22:16:59 10° NNW
Cosmos 1603 4.2 22:25:11 55° NW 22:25:11 55° NW 22:30:24 10° NNE
Lacrosse 5 3.0 22:21:14 10° NW 22:24:24 39° NW 22:24:24 39° NW
Cosmos 1943 3.8 22:31:15 54° NNE 22:31:15 54° NNE 22:35:35 10° NNE
USA 267 3.9 22:25:01 10° NE 22:31:21 53° NNW 22:37:39 10° W
Cosmos 2369 Rocket 3.1 22:30:46 10° NW 22:34:54 41° WNW 22:34:54 41° WNW
Cosmos 1459 Rocket 4.2 22:39:28 65° NNE 22:39:28 65° NNE 22:44:40 10° N
Cosmos 2344 4.4 22:39:11 11° WSW 22:46:24 49° NW 22:55:02 10° NE
CZ-2C R/B 3.8 22:48:59 10° N 22:53:36 36° WNW 22:53:36 36° WNW
Mayak 0.9 22:55:50 10° N 22:57:34 24° N 22:57:34 24° N
ADEOS Rocket 3.4 22:57:32 10° NNE 23:03:43 60° ENE 23:03:43 60° ENE
Cosmos 2061 Rocket 4.2 23:06:17 69° NNW 23:06:17 69° NNW 23:12:04 10° N
USA 234 4.2 23:08:27 34° W 23:08:27 34° W 23:12:29 10° WNW
Cosmos 1802 Rocket 4.2 23:09:40 63° NNW 23:09:40 63° NNW 23:15:02 10° N
ATLAS 5 CENTAUR R/B 3.5 23:04:27 10° NW 23:08:03 34° WNW 23:08:03 34° WNW
Cosmos 2100 Rocket 4.4 23:10:45 55° WNW 23:10:45 55° WNW 23:16:35 10° N
Cosmos 2233 Rocket 4.3 23:30:44 58° NE 23:30:44 58° NE 23:35:51 10° NNE
Lacrosse 4 Rocket 4.5 23:31:45 10° NNE 23:33:38 12° NE 23:35:33 10° ENE
H-2A R/B 4.5 23:37:29 18° NW 23:37:29 18° NW 23:38:59 10° NW
CZ-4C R/B 4.2 23:43:06 18° WNW 23:45:59 25° NNW 23:51:11 10° NNE
Cosmos 1725 Rocket 4.4 23:51:13 54° NW 23:51:13 54° NW 23:56:36 10° N
Cosmos 1943 Rocket 4.5 23:49:27 10° WNW 23:50:19 13° WNW 23:50:19 13° WNW
